Wind_Speed
32 31 25 28 33 36 35 31 32 30 31 30 47 47 41 51 62 66 68 69 67 63 54 56 54 44 42 36 40 34 36 33
30 26 24 26 30 30 33 30 29 30 27 30 37 49 50 53 44 41 54 57 53 64 60 62 51 42 45 41 45 39 41 40
28 26 23 21 24 29 29 27 27 28 26 28 34 45 49 53 51 45 35 48 46 52 55 56 55 48 52 45 48 43 44 42
28 26 25 21 20 24 27 26 25 27 24 24 33 37 51 50 53 46 39 36 46 46 48 55 55 40 48 48 51 51 50 47
29 26 26 23 23 22 23 25 23 24 23 17 24 36 44 47 51 47 38 35 39 40 49 54 55 52 44 47 45 48 49 49
30 22 24 23 19 18 19 24 23 22 22 21 16 25 36 44 44 50 38 41 47 42 47 50 55 48 54 54 50 52 49 52
28 23 23 22 21 23 20 23 25 21 19 20 18 16 29 42 41 49 41 43 46 48 45 51 53 55 57 57 54 58 59 57
30 29 22 24 22 23 21 21 22 23 20 18 18 17 17 27 41 46 45 45 49 49 49 52 54 55 61 61 59 58 58 58
32 34 26 25 24 25 25 23 24 20 23 21 16 15 16 19 31 40 47 52 53 54 56 54 57 56 53 54 57 61 60 60
35 38 32 29 27 28 29 27 26 23 24 22 20 17 15 15 18 33 41 52 58 60 57 61 63 61 61 62 63 62 62 64
40 38 34 31 34 33 31 29 28 28 25 23 21 22 18 16 15 17 29 40 50 60 63 64 64 65 65 64 65 65 66 69
38 40 40 39 38 34 31 29 33 29 27 25 23 23 23 16 18 16 13 23 34 49 63 67 71 70 69 68 68 69 71 72
38 40 40 38 36 37 35 37 37 35 30 28 27 25 20 17 22 22 22 19 15 28 40 55 67 69 75 73 72 72 78 78
43 45 44 40 39 39 39 39 38 40 35 32 27 30 28 28 23 27 24 23 23 21 19 27 42 46 50 56 59 59 62 63
43 40 38 40 40 41 42 42 41 39 40 32 31 30 33 36 33 29 26 27 29 29 29 29 27 26 33 44 49 53 52 51
44 42 43 44 43 43 45 43 45 44 42 41 37 36 39 40 40 37 26 31 35 37 36 34 35 34 33 29 29 30 33 42
47 49 48 49 48 47 45 46 46 44 43 42 44 46 46 46 45 44 40 42 42 43 43 46 42 41 41 41 38 36 36 37
47 48 53 54 52 49 50 52 51 50 49 47 46 49 49 50 52 49 45 49 51 49 46 50 52 50 46 44 47 49 48 47
49 51 56 59 56 55 54 57 56 54 51 53 51 52 51 57 55 53 55 62 60 60 59 54 56 57 56 54 51 49 51 51
Wind_Direction
280 287 295 301 304 308 307 306 304 294 280 252 228 228 230 225 227 230 233 232 235 234 235 246 248 245 228 229 221 223 225 229
280 282 296 301 301 308 310 307 310 308 289 264 238 226 225 227 224 225 230 230 231 234 231 233 242 223 228 226 225 230 234 232
276 277 294 308 318 319 324 321 318 318 296 264 249 231 226 223 227 229 234 228 227 230 223 231 237 239 228 233 235 233 239 245
265 270 281 305 309 326 329 330 325 325 310 270 252 242 227 230 228 232 233 232 224 225 228 228 232 235 232 234 236 237 240 245
257 266 279 296 294 308 326 336 335 330 327 294 264 240 229 231 229 234 233 240 230 219 222 225 229 233 238 236 242 247 250 252
253 266 276 286 297 309 325 334 331 332 332 331 275 248 231 229 234 231 232 234 233 220 220 222 227 232 237 241 244 247 248 252
249 258 268 277 289 295 311 320 329 331 328 333 324 277 240 232 233 221 229 232 224 221 227 224 229 237 240 244 247 248 254 261
248 255 259 270 281 287 299 315 316 334 327 324 333 326 264 245 235 227 224 226 227 228 226 225 232 237 240 245 248 249 254 254
249 258 257 264 275 283 291 296 306 321 338 328 315 319 329 263 246 238 231 221 226 233 233 232 234 240 239 242 246 248 250 253
249 258 263 256 266 279 286 288 292 301 319 341 323 317 310 318 270 244 240 231 226 231 238 236 237 240 243 246 248 252 253 256
247 252 260 256 267 275 284 285 289 292 298 307 323 320 310 299 307 274 248 243 240 235 235 241 244 245 244 246 249 253 256 259
246 253 258 258 263 272 277 276 285 282 290 299 303 318 309 299 295 296 296 261 251 244 239 240 243 246 249 251 252 253 256 259
248 250 256 257 260 275 274 273 284 277 280 289 295 303 318 304 305 298 287 289 284 262 255 249 247 248 248 254 257 259 259 260
249 249 255 258 270 277 275 278 279 275 274 281 285 291 295 302 301 292 291 284 280 276 278 273 259 256 257 257 257 258 259 259
254 254 258 265 270 272 275 274 271 268 274 277 288 286 292 298 298 306 288 290 291 281 279 275 272 272 269 264 264 263 264 264
256 261 262 262 262 267 269 270 269 267 271 280 278 282 290 290 291 293 298 306 307 292 275 278 274 270 270 271 273 273 271 269
258 260 261 263 265 266 266 269 266 266 264 267 273 279 288 290 287 288 292 302 309 311 295 276 277 278 275 271 272 271 272 269
255 260 263 263 260 262 262 262 263 265 262 266 268 274 281 287 286 280 282 297 302 302 304 282 275 274 272 270 272 272 274 274
258 261 265 263 257 258 257 261 262 262 261 276 270 272 281 285 280 271 276 294 298 299 299 295 282 272 270 269 271 271 270 273
Height
10650 10649 10648 10645 10639 10634 10630 10624 10619 10616 10613 10615 10619 10622 10627 10630 10634 10638 10639 10646 10650 10654 10662 10664 10670 10679 10680 10682 10685 10688 10691 10693
10642 10642 10642 10639 10637 10632 10627 10621 10615 10609 10605 10606 10608 10613 10618 10622 10625 10627 10629 10635 10641 10640 10651 10655 10663 10670 10671 10673 10676 10679 10681 10684
10635 10636 10636 10633 10629 10624 10619 10614 10609 10604 10599 10597 10598 10604 10610 10612 10613 10618 10621 10626 10631 10633 10641 10646 10656 10661 10664 10666 10669 10672 10674 10678
10628 10630 10631 10628 10625 10622 10617 10611 10606 10600 10596 10592 10591 10594 10599 10603 10605 10609 10614 10619 10623 10627 10632 10638 10648 10653 10656 10659 10662 10666 10668 10671
10621 10624 10625 10624 10621 10618 10614 10608 10604 10599 10592 10589 10587 10587 10592 10597 10601 10603 10608 10612 10616 10620 10625 10630 10637 10644 10648 10650 10654 10657 10660 10662
10613 10617 10617 10618 10616 10614 10612 10607 10602 10597 10592 10587 10585 10585 10586 10590 10594 10599 10602 10606 10608 10613 10618 10623 10629 10634 10637 10641 10644 10647 10650 10652
10608 10609 10610 10612 10611 10609 10607 10604 10600 10596 10592 10588 10583 10582 10583 10585 10587 10592 10596 10599 10601 10606 10611 10615 10619 10623 10627 10631 10634 10636 10639 10641
10600 10602 10604 10604 10605 10604 10604 10601 10599 10595 10591 10587 10583 10579 10578 10579 10581 10584 10589 10593 10597 10599 10603 10608 10611 10613 10617 10620 10623 10625 10626 10629
10592 10593 10598 10596 10598 10599 10599 10597 10595 10593 10589 10585 10582 10580 10577 10575 10575 10577 10580 10585 10589 10592 10596 10598 10602 10604 10606 10608 10611 10613 10614 10616
10583 10584 10590 10590 10590 10592 10592 10593 10591 10589 10586 10583 10579 10577 10576 10573 10570 10571 10573 10576 10579 10582 10585 10589 10591 10593 10596 10598 10599 10599 10601 10603
10574 10576 10579 10583 10582 10584 10584 10585 10585 10584 10582 10579 10577 10574 10572 10570 10568 10566 10566 10567 10569 10572 10575 10576 10578 10581 10584 10586 10587 10588 10588 10590
10564 10567 10569 10574 10575 10576 10578 10577 10578 10578 10576 10575 10573 10571 10568 10566 10565 10563 10561 10560 10561 10563 10565 10567 10568 10569 10571 10572 10574 10574 10574 10576
10556 10558 10558 10563 10567 10568 10571 10571 10570 10570 10570 10569 10568 10566 10565 10563 10561 10559 10558 10557 10555 10554 10554 10556 10558 10558 10559 10560 10561 10561 10561 10561
10541 10550 10553 10555 10559 10559 10560 10562 10563 10561 10562 10562 10561 10561 10560 10559 10557 10554 10553 10552 10552 10550 10549 10548 10547 10547 10547 10547 10547 10546 10546 10546
10533 10540 10548 10548 10550 10550 10549 10550 10552 10553 10551 10552 10553 10553 10554 10552 10550 10549 10547 10547 10546 10546 10543 10541 10540 10538 10536 10535 10534 10534 10535 10534
10521 10528 10533 10536 10538 10537 10537 10538 10539 10542 10544 10540 10540 10542 10542 10542 10541 10541 10540 10538 10538 10538 10537 10534 10532 10530 10528 10527 10526 10524 10523 10522
10512 10514 10522 10523 10526 10529 10528 10525 10525 10527 10531 10532 10530 10528 10529 10530 10530 10529 10529 10529 10527 10527 10526 10524 10523 10520 10517 10516 10516 10515 10513 10512
10499 10505 10507 10510 10512 10512 10512 10513 10515 10515 10515 10517 10519 10521 10519 10519 10518 10517 10515 10516 10518 10516 10516 10514 10512 10510 10507 10505 10503 10503 10503 10501
10490 10494 10493 10491 10495 10499 10500 10500 10506 10506 10503 10502 10503 10508 10510 10507 10506 10504 10502 10503 10501 10501 10501 10501 10499 10496 10492 10491 10488 10489 10489 10487